Skip Page Navigation
NASA JPL Caltech
NASA Logo - Jet Propulsion Laboratory + View the NASA Portal
+ Near-Earth Object (NEO) Program
Search JPL
JPL Home Earth Solar System Stars & Galaxies Technology
JPL Solar System Dynamics
BODIES ORBITS EPHEMERIDES TOOLS PHYSICAL DATA DISCOVERY FAQ SITE MAP
JPL Small-Body Database Browser
Search: [ help ]  
15876 (1996 VO38)
Classification: Main-belt Asteroid          SPK-ID: 2015876
Ephemeris | Orbit Diagram | Orbital Elements | Physical Parameters | Discovery Circumstances | Close-Approach Data ]

[ show orbit diagram ]
Orbital Elements at Epoch 2456800.5 (2014-May-23.0) TDB
Reference: JPL 6 (heliocentric ecliptic J2000)
 Element Value Uncertainty (1-sigma)   Units 
e .06406666539733273 6.5249e-08  
a 2.850104630052481 2.9459e-08 AU
q 2.66750793037152 1.9432e-07 AU
i 2.862065774801295 7.1321e-06 deg
node 134.6418841341188 0.00012767 deg
peri 175.4843827765473 0.00013893 deg
M 322.2361852533512 5.7443e-05 deg
tp 2456984.858425369682
(2014-Nov-23.35842537)
0.00028103 JED
period 1757.476928068425
4.81
2.7248e-05
7.46e-08
d
yr
n .2048391044289054 3.1759e-09 deg/d
Q 3.032701329733442 3.1346e-08 AU
  Orbit Determination Parameters
   # obs. used (total)      943  
   data-arc span      6447 days (17.65 yr)  
   first obs. used      1996-11-07  
   last obs. used      2014-07-03  
   planetary ephem.      DE431  
   SB-pert. ephem.      SB431-BIG16  
   condition code      0  
   fit RMS      .5584  
   data source      ORB  
   producer      Otto Matic  
   solution date      2014-Jul-14 12:35:24  

Additional Information
 Earth MOID = 1.65204 AU 
 T_jup = 3.301 
[ show covariance matrix ]

Ephemeris | Orbit Diagram | Orbital Elements | Physical Parameters | Discovery Circumstances | Close-Approach Data ]

Physical Parameter Table
Parameter Symbol Value Units Sigma Reference Notes
absolute magnitude H 13.7 mag n/a MPO266040  

15876 (1996 VO38)          Discovered 1996-Nov-12 by Ueda, S., Kaneda, H. at Kushiro (399)
Reference: 20000726/Numbers.arcLast Updated: 2004-04-19

[ show close-approach data ]
Alternate Designations
 1996 VO38 = 1998 BX45 
Ephemeris | Orbit Diagram | Orbital Elements | Physical Parameters | Discovery Circumstances | Close-Approach Data ]
ABOUT SSD CREDITS/AWARDS PRIVACY/COPYRIGHT GLOSSARY LINKS
FirstGov 2014-Aug-02 08:36 UT
(server date/time)  
NASA Home Page
Site Manager:   Donald K. Yeomans
Webmaster  Alan B. Chamberlin